User: anonymous   Login
Location: Holmes Observatory
(37.1039°N, 122.0513°W)
Time: 20:30:59
(UTC-07:00)
Language:

Cosmos 921 Rocket - Orbit

View from above orbital plane
View from above orbital plane
View from above satellite
View from above satellite

Ground track
Ground track

The orbit data is extracted from the following two-line orbital elements,

1 10096U 77055B   14297.09429922  .00001017  00000-0  11136-3 0  5709
2 10096 075.8344 276.8112 0042517 150.5460 277.6320 14.87924093 18380
Epoch (UTC): 24 October 2014 02:15:47
Eccentricity: 0.0042517
inclination: 75.8344°
perigee height: 575 km
apogee height: 634 km
right ascension of ascending node: 276.8112°
argument of perigee: 150.5460°
revolutions per day: 14.87924093
mean anomaly at epoch: 277.6320°
orbit number at epoch: 1838

The dashed part of the orbit path shows where the satellite is in the earth's shadow,  

DLR